• In Deutschland
  • Länderverzeichnis
  • Für 7 Tage
  • Wassertemperatur
  • Satellitenkarten
  • Wetterkarte
  • Widgets
  • user-avatar
    Anmelden

    Stündliche Wetter Graz

    Heute, 12 Dezember, Dienstag

    Zeit Temperatur Niederschläge Wind Luftdruck Luftfeuchtigkeit
    00:00 +7°C° 0 mm 4 m/S 709 mmHg 92%
    01:00 +7°C° 0 mm 4 m/S 709 mmHg 91%
    02:00 +7°C° 0 mm 4 m/S 709 mmHg 90%
    03:00 +7°C° 0 mm 4 m/S 710 mmHg 90%
    04:00 +7°C° 0 mm 4 m/S 710 mmHg 89%
    05:00 +8°C° 0,1 mm 3 m/S 711 mmHg 90%
    06:00 +8°C° 0,1 mm 3 m/S 712 mmHg 91%
    07:00 +8°C° 0,1 mm 2 m/S 713 mmHg 92%
    08:00 +8°C° 0 mm 2 m/S 714 mmHg 91%
    09:00 +8°C° 0 mm 2 m/S 716 mmHg 91%
    10:00 +8°C° 0 mm 2 m/S 717 mmHg 91%
    11:00 +9°C° 0 mm 2 m/S 717 mmHg 88%
    12:00 +9°C° 0 mm 2 m/S 718 mmHg 84%
    13:00 +10°C° 0 mm 2 m/S 718 mmHg 81%
    14:00 +9°C° 0 mm 2 m/S 719 mmHg 84%
    15:00 +7°C° 0 mm 2 m/S 719 mmHg 86%
    16:00 +7°C° 0 mm 1 m/S 720 mmHg 89%
    17:00 +6°C° 0,1 mm 2 m/S 720 mmHg 89%
    18:00 +5°C° 0,1 mm 2 m/S 721 mmHg 89%
    19:00 +4°C° 0,1 mm 2 m/S 721 mmHg 89%
    20:00 +4°C° 0,3 mm 2 m/S 722 mmHg 89%
    21:00 +4°C° 0,3 mm 2 m/S 723 mmHg 89%
    22:00 +3°C° 0,3 mm 2 m/S 723 mmHg 89%
    23:00 +3°C° 1 mm 2 m/S 724 mmHg 90%

    Morgen, 13 Dezember, Mittwoch

    Zeit Temperatur Niederschläge Wind Luftdruck Luftfeuchtigkeit
    00:00 +2°C° 1 mm 2 m/S 725 mmHg 91%
    01:00 +2°C° 1 mm 2 m/S 725 mmHg 92%
    02:00 +3°C° 1,1 mm 1 m/S 725 mmHg 92%
    03:00 +3°C° 1,1 mm 1 m/S 726 mmHg 93%
    04:00 +2°C° 1,1 mm 1 m/S 726 mmHg 93%
    05:00 +2°C° 0,4 mm 1 m/S 726 mmHg 93%
    06:00 +2°C° 0,4 mm 1 m/S 726 mmHg 93%
    07:00 +1°C° 0,4 mm 0 m/S 726 mmHg 93%
    08:00 +1°C° 0,2 mm 0 m/S 727 mmHg 91%
    09:00 +2°C° 0,2 mm 0 m/S 727 mmHg 89%
    10:00 +2°C° 0,2 mm 0 m/S 727 mmHg 87%
    11:00 +4°C° 0,1 mm 1 m/S 726 mmHg 86%
    12:00 +4°C° 0,1 mm 1 m/S 726 mmHg 84%
    13:00 +4°C° 0,1 mm 1 m/S 725 mmHg 83%
    14:00 +4°C° 0 mm 1 m/S 725 mmHg 86%
    15:00 +3°C° 0 mm 1 m/S 724 mmHg 89%
    16:00 +2°C° 0 mm 1 m/S 724 mmHg 92%
    17:00 +2°C° 0 mm 1 m/S 723 mmHg 93%
    18:00 +1°C° 0 mm 1 m/S 723 mmHg 94%
    19:00 0°C° 0 mm 1 m/S 722 mmHg 95%
    20:00 0°C° 0 mm 1 m/S 722 mmHg 95%
    21:00 0°C° 0 mm 1 m/S 722 mmHg 95%
    22:00 0°C° 0 mm 1 m/S 721 mmHg 95%
    23:00 0°C° 0 mm 1 m/S 720 mmHg 94%

    übermorgen, 14 Dezember, Donnerstag

    Zeit Temperatur Niederschläge Wind Luftdruck Luftfeuchtigkeit
    00:00 0°C° 0 mm 1 m/S 720 mmHg 94%
    01:00 -2°C° 0 mm 2 m/S 719 mmHg 93%
    02:00 -1°C° 0 mm 2 m/S 719 mmHg 93%
    03:00 -1°C° 0 mm 2 m/S 718 mmHg 93%
    04:00 -1°C° 0 mm 2 m/S 717 mmHg 92%
    05:00 -1°C° 0 mm 2 m/S 717 mmHg 91%
    06:00 +1°C° 0 mm 2 m/S 717 mmHg 90%
    07:00 +1°C° 0 mm 2 m/S 717 mmHg 88%
    08:00 +2°C° 0 mm 2 m/S 717 mmHg 86%
    09:00 +3°C° 0 mm 2 m/S 717 mmHg 84%
    10:00 +3°C° 0 mm 2 m/S 717 mmHg 82%
    11:00 +4°C° 0 mm 2 m/S 717 mmHg 82%
    12:00 +5°C° 0 mm 2 m/S 717 mmHg 82%
    13:00 +7°C° 0 mm 1 m/S 716 mmHg 82%
    14:00 +6°C° 0,4 mm 1 m/S 716 mmHg 85%
    15:00 +5°C° 0,4 mm 1 m/S 716 mmHg 88%
    16:00 +4°C° 0,4 mm 0 m/S 716 mmHg 92%
    17:00 +3°C° 0,5 mm 0 m/S 716 mmHg 93%
    18:00 +4°C° 0,5 mm 1 m/S 715 mmHg 94%
    19:00 +3°C° 0,5 mm 1 m/S 715 mmHg 95%
    20:00 +3°C° 0,3 mm 1 m/S 715 mmHg 95%
    21:00 +3°C° 0,3 mm 1 m/S 714 mmHg 96%
    22:00 +3°C° 0,3 mm 1 m/S 714 mmHg 96%
    23:00 +3°C° 0 mm 1 m/S 713 mmHg 96%

    15 Dezember, Freitag

    Zeit Temperatur Niederschläge Wind Luftdruck Luftfeuchtigkeit
    00:00 +3°C° 0 mm 1 m/S 712 mmHg 96%
    01:00 +2°C° 0 mm 2 m/S 712 mmHg 96%
    02:00 +3°C° 0,1 mm 1 m/S 712 mmHg 95%
    03:00 +4°C° 0,1 mm 1 m/S 712 mmHg 95%
    04:00 +4°C° 0,1 mm 1 m/S 712 mmHg 94%
    05:00 +4°C° 0,2 mm 1 m/S 712 mmHg 93%
    06:00 +4°C° 0,2 mm 1 m/S 713 mmHg 92%
    07:00 +4°C° 0,2 mm 1 m/S 713 mmHg 91%
    08:00 +4°C° 0,1 mm 1 m/S 713 mmHg 89%
    09:00 +4°C° 0,1 mm 1 m/S 714 mmHg 88%
    10:00 +5°C° 0,1 mm 1 m/S 714 mmHg 86%
    11:00 +5°C° 0,2 mm 1 m/S 714 mmHg 86%
    12:00 +5°C° 0,2 mm 1 m/S 714 mmHg 86%
    13:00 +5°C° 0,2 mm 1 m/S 714 mmHg 86%
    14:00 +5°C° 0,3 mm 1 m/S 713 mmHg 88%
    15:00 +4°C° 0,3 mm 1 m/S 713 mmHg 90%
    16:00 +4°C° 0,3 mm 1 m/S 713 mmHg 92%
    17:00 +3°C° 0,5 mm 1 m/S 713 mmHg 93%
    18:00 +3°C° 0,5 mm 1 m/S 713 mmHg 93%
    19:00 +3°C° 0,5 mm 1 m/S 713 mmHg 94%
    20:00 +3°C° 0,5 mm 1 m/S 713 mmHg 94%
    21:00 +3°C° 0,5 mm 1 m/S 713 mmHg 94%
    22:00 +2°C° 0,5 mm 1 m/S 713 mmHg 93%
    23:00 +2°C° 0,2 mm 1 m/S 713 mmHg 92%

    16 Dezember, Samstag

    Zeit Temperatur Niederschläge Wind Luftdruck Luftfeuchtigkeit
    00:00 +2°C° 0,2 mm 1 m/S 713 mmHg 92%
    01:00 +1°C° 0,2 mm 0 m/S 714 mmHg 91%
    02:00 +2°C° 0,1 mm 1 m/S 714 mmHg 91%
    03:00 +2°C° 0,1 mm 1 m/S 714 mmHg 91%
    04:00 +2°C° 0,1 mm 1 m/S 714 mmHg 91%
    05:00 +2°C° 0,1 mm 1 m/S 715 mmHg 91%
    06:00 +1°C° 0,1 mm 1 m/S 715 mmHg 91%
    07:00 +1°C° 0,1 mm 1 m/S 716 mmHg 91%
    08:00 +2°C° 0 mm 1 m/S 716 mmHg 89%
    09:00 +2°C° 0 mm 1 m/S 717 mmHg 87%
    10:00 +2°C° 0 mm 2 m/S 718 mmHg 85%
    11:00 +2°C° 0 mm 2 m/S 718 mmHg 80%
    12:00 +3°C° 0 mm 2 m/S 718 mmHg 76%
    13:00 +3°C° 0 mm 2 m/S 719 mmHg 71%
    14:00 +3°C° 0 mm 1 m/S 719 mmHg 74%
    15:00 +2°C° 0 mm 1 m/S 719 mmHg 77%
    16:00 0°C° 0 mm 0 m/S 719 mmHg 79%
    17:00 0°C° 0 mm 1 m/S 720 mmHg 80%
    18:00 0°C° 0 mm 1 m/S 721 mmHg 81%
    19:00 -1°C° 0 mm 1 m/S 721 mmHg 82%
    20:00 -1°C° 0 mm 1 m/S 722 mmHg 82%
    21:00 -1°C° 0 mm 1 m/S 722 mmHg 82%
    22:00 -2°C° 0 mm 1 m/S 722 mmHg 82%
    23:00 -2°C° 0 mm 1 m/S 722 mmHg 82%

    17 Dezember, Sonntag

    Zeit Temperatur Niederschläge Wind Luftdruck Luftfeuchtigkeit
    00:00 -2°C° 0 mm 1 m/S 723 mmHg 82%
    01:00 -2°C° 0 mm 1 m/S 723 mmHg 81%
    02:00 -2°C° 0 mm 1 m/S 723 mmHg 81%
    03:00 -2°C° 0 mm 1 m/S 723 mmHg 81%
    04:00 -2°C° 0 mm 1 m/S 723 mmHg 81%
    05:00 -2°C° 0 mm 1 m/S 723 mmHg 80%
    06:00 -2°C° 0 mm 1 m/S 723 mmHg 80%
    07:00 -2°C° 0 mm 1 m/S 724 mmHg 80%
    08:00 -1°C° 0 mm 1 m/S 724 mmHg 78%
    09:00 0°C° 0 mm 1 m/S 724 mmHg 77%
    10:00 +1°C° 0 mm 1 m/S 725 mmHg 75%
    11:00 +2°C° 0 mm 1 m/S 725 mmHg 72%
    12:00 +3°C° 0 mm 1 m/S 725 mmHg 70%
    13:00 +4°C° 0 mm 1 m/S 724 mmHg 68%
    14:00 +3°C° 0,1 mm 1 m/S 725 mmHg 72%
    15:00 +1°C° 0,1 mm 0 m/S 725 mmHg 77%
    16:00 0°C° 0,1 mm 0 m/S 725 mmHg 81%
    17:00 0°C° 0 mm 1 m/S 726 mmHg 83%
    18:00 0°C° 0 mm 1 m/S 726 mmHg 84%
    19:00 -1°C° 0 mm 1 m/S 727 mmHg 85%
    20:00 -1°C° 0 mm 1 m/S 727 mmHg 86%
    21:00 -1°C° 0 mm 1 m/S 727 mmHg 86%
    22:00 -1°C° 0 mm 1 m/S 728 mmHg 87%
    23:00 -1°C° 0 mm 1 m/S 728 mmHg 87%
    Mehr zeigen